Time,TemperatureF,DewpointF,PressureIn,WindDirection,WindDirectionDegrees,WindSpeedMPH,WindSpeedGustMPH,Humidity,HourlyPrecipIn,Conditions,Clouds,dailyrainin,SoftwareType,DateUTC
2013-02-18 00:11:00,46.0,28.0,29.48,WNW,290,6.0,-999.0,49,-99.99,,,-99.99,,2013-02-18 06:11:00,
2013-02-18 00:21:00,45.0,27.0,29.49,NNW,340,12.0,16.0,48,-99.99,,,-99.99,,2013-02-18 06:21:00,
2013-02-18 00:32:00,45.0,28.0,29.50,North,360,18.0,23.0,52,-99.99,,,-99.99,,2013-02-18 06:32:00,
2013-02-18 00:42:00,45.0,28.0,29.50,North,360,18.0,23.0,52,-99.99,,,-99.99,,2013-02-18 06:42:00,
2013-02-18 00:52:00,46.0,32.0,29.50,North,360,27.0,35.0,57,-99.99,,,-99.99,,2013-02-18 06:52:00,
2013-02-18 01:01:00,46.0,32.0,29.50,North,360,27.0,35.0,57,-99.99,,,-99.99,,2013-02-18 07:01:00,
2013-02-18 01:11:00,46.0,32.0,29.50,North,360,27.0,35.0,57,-99.99,,,-99.99,,2013-02-18 07:11:00,
2013-02-18 01:21:00,45.0,36.0,29.52,North,350,24.0,36.0,70,-99.99,,,-99.99,,2013-02-18 07:21:00,
2013-02-18 01:32:00,45.0,36.0,29.54,North,350,30.0,33.0,70,-99.99,,,-99.99,,2013-02-18 07:32:00,
2013-02-18 01:52:00,43.0,36.0,29.54,North,350,23.0,35.0,75,-99.99,,,-99.99,,2013-02-18 07:52:00,
2013-02-18 02:21:00,43.0,36.0,29.56,North,350,24.0,35.0,75,-99.99,,,-99.99,,2013-02-18 08:21:00,
2013-02-18 02:32:00,43.0,34.0,29.56,NNW,340,25.0,33.0,70,-99.99,,,-99.99,,2013-02-18 08:32:00,
2013-02-18 02:42:00,43.0,34.0,29.56,NNW,340,25.0,33.0,70,-99.99,,,-99.99,,2013-02-18 08:42:00,
2013-02-18 02:52:00,43.0,34.0,29.58,NNW,340,25.0,37.0,70,-99.99,,,-99.99,,2013-02-18 08:52:00,
2013-02-18 03:02:00,43.0,34.0,29.58,NNW,340,25.0,37.0,70,-99.99,,,-99.99,,2013-02-18 09:02:00,
2013-02-18 03:11:00,43.0,34.0,29.58,NNW,340,25.0,37.0,70,-99.99,,,-99.99,,2013-02-18 09:11:00,
2013-02-18 03:22:00,41.0,34.0,29.59,NNW,340,21.0,29.0,75,-99.99,,,-99.99,,2013-02-18 09:22:00,
2013-02-18 03:31:00,41.0,34.0,29.59,NNW,340,25.0,32.0,75,-99.99,,,-99.99,,2013-02-18 09:31:00,
2013-02-18 03:42:00,41.0,34.0,29.59,NNW,340,25.0,32.0,75,-99.99,,,-99.99,,2013-02-18 09:42:00,
2013-02-18 03:52:00,41.0,34.0,29.59,NNW,340,25.0,32.0,75,-99.99,,,-99.99,,2013-02-18 09:52:00,
2013-02-18 04:01:00,41.0,34.0,29.59,NNW,340,25.0,32.0,75,-99.99,,,-99.99,,2013-02-18 10:01:00,
2013-02-18 04:11:00,41.0,34.0,29.59,NNW,340,25.0,32.0,75,-99.99,,,-99.99,,2013-02-18 10:11:00,
2013-02-18 04:21:00,39.0,30.0,29.61,NNW,340,21.0,31.0,69,-99.99,,,-99.99,,2013-02-18 10:21:00,
2013-02-18 04:32:00,39.0,30.0,29.61,NNW,330,25.0,31.0,69,-99.99,,,-99.99,,2013-02-18 10:32:00,
2013-02-18 04:42:00,39.0,30.0,29.61,NNW,330,25.0,31.0,69,-99.99,,,-99.99,,2013-02-18 10:42:00,
2013-02-18 04:53:00,39.0,30.0,29.62,NNW,330,25.0,31.0,69,-99.99,,,-99.99,,2013-02-18 10:53:00,
2013-02-18 05:01:00,39.0,30.0,29.62,NNW,330,25.0,31.0,69,-99.99,,,-99.99,,2013-02-18 11:01:00,
2013-02-18 05:11:00,39.0,30.0,29.62,NNW,330,25.0,31.0,69,-99.99,,,-99.99,,2013-02-18 11:11:00,
2013-02-18 05:22:00,37.0,30.0,29.65,NW,320,18.0,29.0,74,-99.99,,,-99.99,,2013-02-18 11:22:00,
2013-02-18 05:43:00,37.0,30.0,29.65,NNW,330,24.0,31.0,74,-99.99,,,-99.99,,2013-02-18 11:43:00,
2013-02-18 05:53:00,37.0,30.0,29.66,NW,320,23.0,29.0,74,-99.99,,,-99.99,,2013-02-18 11:53:00,
2013-02-18 06:02:00,37.0,30.0,29.66,NW,320,23.0,29.0,74,-99.99,,,-99.99,,2013-02-18 12:02:00,
2013-02-18 06:11:00,37.0,30.0,29.66,NW,320,23.0,29.0,74,-99.99,,,-99.99,,2013-02-18 12:11:00,
2013-02-18 06:22:00,37.0,30.0,29.68,NW,320,23.0,32.0,74,-99.99,,,-99.99,,2013-02-18 12:22:00,
2013-02-18 06:32:00,37.0,30.0,29.68,NW,320,23.0,32.0,74,-99.99,,,-99.99,,2013-02-18 12:32:00,
2013-02-18 06:42:00,37.0,30.0,29.68,NW,320,23.0,32.0,74,-99.99,,,-99.99,,2013-02-18 12:42:00,
2013-02-18 06:53:00,36.0,30.0,29.71,NNW,330,23.0,35.0,80,-99.99,,,-99.99,,2013-02-18 12:53:00,
2013-02-18 07:02:00,36.0,30.0,29.71,NNW,330,23.0,35.0,80,-99.99,,,-99.99,,2013-02-18 13:02:00,
2013-02-18 07:12:00,36.0,30.0,29.71,NNW,330,23.0,35.0,80,-99.99,,,-99.99,,2013-02-18 13:12:00,
2013-02-18 07:22:00,36.0,30.0,29.75,NNW,330,20.0,25.0,80,-99.99,,,-99.99,,2013-02-18 13:22:00,
2013-02-18 07:32:00,36.0,30.0,29.76,NW,320,18.0,24.0,80,-99.99,,,-99.99,,2013-02-18 13:32:00,
2013-02-18 07:42:00,36.0,30.0,29.76,NW,320,18.0,24.0,80,-99.99,,,-99.99,,2013-02-18 13:42:00,
2013-02-18 07:53:00,36.0,30.0,29.77,NW,320,18.0,24.0,80,-99.99,,,-99.99,,2013-02-18 13:53:00,
2013-02-18 08:02:00,36.0,30.0,29.77,NW,320,18.0,24.0,80,-99.99,,,-99.99,,2013-02-18 14:02:00,
2013-02-18 08:11:00,36.0,30.0,29.77,NW,320,18.0,24.0,80,-99.99,,,-99.99,,2013-02-18 14:11:00,
2013-02-18 08:22:00,36.0,30.0,29.77,NW,320,23.0,-999.0,80,-99.99,,,-99.99,,2013-02-18 14:22:00,
2013-02-18 08:32:00,36.0,30.0,29.79,NW,320,20.0,27.0,80,-99.99,,,-99.99,,2013-02-18 14:32:00,
2013-02-18 08:42:00,36.0,30.0,29.79,NW,320,20.0,27.0,80,-99.99,,,-99.99,,2013-02-18 14:42:00,
2013-02-18 08:53:00,36.0,30.0,29.80,NW,320,20.0,27.0,80,-99.99,,,-99.99,,2013-02-18 14:53:00,
2013-02-18 09:02:00,36.0,30.0,29.80,NW,320,20.0,27.0,80,-99.99,,,-99.99,,2013-02-18 15:02:00,
2013-02-18 09:11:00,36.0,30.0,29.80,NW,320,20.0,27.0,80,-99.99,,,-99.99,,2013-02-18 15:11:00,
2013-02-18 09:22:00,37.0,30.0,29.82,NW,310,18.0,27.0,74,-99.99,,,-99.99,,2013-02-18 15:22:00,
2013-02-18 09:32:00,37.0,30.0,29.83,NW,310,25.0,30.0,74,-99.99,,,-99.99,,2013-02-18 15:32:00,
2013-02-18 09:42:00,37.0,30.0,29.83,NW,310,25.0,30.0,74,-99.99,,,-99.99,,2013-02-18 15:42:00,
2013-02-18 09:53:00,37.0,28.0,29.84,NNW,330,27.0,33.0,69,-99.99,,,-99.99,,2013-02-18 15:53:00,
2013-02-18 10:02:00,37.0,28.0,29.84,NNW,330,27.0,33.0,69,-99.99,,,-99.99,,2013-02-18 16:02:00,
2013-02-18 10:12:00,37.0,28.0,29.84,NNW,330,27.0,33.0,69,-99.99,,,-99.99,,2013-02-18 16:12:00,
2013-02-18 10:22:00,39.0,28.0,29.85,NW,320,23.0,37.0,64,-99.99,,,-99.99,,2013-02-18 16:22:00,
2013-02-18 10:32:00,39.0,28.0,29.86,NW,320,32.0,37.0,64,-99.99,,,-99.99,,2013-02-18 16:32:00,
2013-02-18 10:43:00,39.0,28.0,29.86,NW,320,32.0,37.0,64,-99.99,,,-99.99,,2013-02-18 16:43:00,
2013-02-18 10:53:00,41.0,28.0,29.86,NNW,330,29.0,40.0,60,-99.99,,,-99.99,,2013-02-18 16:53:00,
2013-02-18 11:03:00,41.0,28.0,29.86,NNW,330,29.0,40.0,60,-99.99,,,-99.99,,2013-02-18 17:03:00,
2013-02-18 11:12:00,41.0,28.0,29.86,NNW,330,29.0,40.0,60,-99.99,,,-99.99,,2013-02-18 17:12:00,
2013-02-18 11:22:00,43.0,28.0,29.87,NNW,330,30.0,35.0,56,-99.99,,,-99.99,,2013-02-18 17:22:00,
2013-02-18 11:32:00,43.0,28.0,29.87,NW,320,28.0,37.0,56,-99.99,,,-99.99,,2013-02-18 17:32:00,
2013-02-18 11:43:00,43.0,28.0,29.87,NW,320,28.0,37.0,56,-99.99,,,-99.99,,2013-02-18 17:43:00,
2013-02-18 11:53:00,45.0,28.0,29.88,NW,320,28.0,36.0,52,-99.99,,,-99.99,,2013-02-18 17:53:00,
2013-02-18 12:02:00,45.0,28.0,29.88,NW,320,28.0,36.0,52,-99.99,,,-99.99,,2013-02-18 18:02:00,
2013-02-18 12:12:00,45.0,28.0,29.88,NW,320,28.0,36.0,52,-99.99,,,-99.99,,2013-02-18 18:12:00,
2013-02-18 12:22:00,45.0,28.0,29.89,NW,320,25.0,36.0,52,-99.99,,,-99.99,,2013-02-18 18:22:00,
2013-02-18 12:32:00,46.0,28.0,29.90,NW,320,24.0,39.0,49,-99.99,,,-99.99,,2013-02-18 18:32:00,
2013-02-18 12:53:00,46.0,28.0,29.89,NNW,330,24.0,37.0,49,-99.99,,,-99.99,,2013-02-18 18:53:00,
2013-02-18 13:22:00,46.0,27.0,29.90,NNW,330,27.0,32.0,45,-99.99,,,-99.99,,2013-02-18 19:22:00,
2013-02-18 13:33:00,46.0,27.0,29.90,NW,320,21.0,38.0,45,-99.99,,,-99.99,,2013-02-18 19:33:00,
2013-02-18 13:53:00,46.0,27.0,29.90,NNW,330,31.0,39.0,45,-99.99,,,-99.99,,2013-02-18 19:53:00,
2013-02-18 14:22:00,48.0,27.0,29.91,NW,320,24.0,36.0,42,-99.99,,,-99.99,,2013-02-18 20:22:00,
2013-02-18 14:33:00,46.0,27.0,29.90,NNW,340,25.0,35.0,45,-99.99,,,-99.99,,2013-02-18 20:33:00,
2013-02-18 14:53:00,46.0,27.0,29.91,NW,320,25.0,37.0,45,-99.99,,,-99.99,,2013-02-18 20:53:00,
2013-02-18 15:22:00,48.0,27.0,29.92,NW,320,20.0,32.0,42,-99.99,,,-99.99,,2013-02-18 21:22:00,
2013-02-18 15:32:00,46.0,27.0,29.92,NW,320,25.0,35.0,45,-99.99,,,-99.99,,2013-02-18 21:32:00,
2013-02-18 15:53:00,46.0,25.0,29.92,NNW,330,25.0,32.0,42,-99.99,,,-99.99,,2013-02-18 21:53:00,
2013-02-18 16:33:00,45.0,25.0,29.94,NNW,330,23.0,29.0,45,-99.99,,,-99.99,,2013-02-18 22:33:00,
2013-02-18 16:53:00,45.0,25.0,29.95,NW,320,21.0,31.0,45,-99.99,,,-99.99,,2013-02-18 22:53:00,
2013-02-18 17:22:00,45.0,25.0,29.96,NW,320,22.0,31.0,45,-99.99,,,-99.99,,2013-02-18 23:22:00,
2013-02-18 17:32:00,43.0,23.0,29.97,NNW,330,20.0,25.0,45,-99.99,,,-99.99,,2013-02-18 23:32:00,
2013-02-18 17:43:00,43.0,25.0,29.97,NNW,330,18.0,28.0,48,-99.99,,,-99.99,,2013-02-18 23:43:00,
2013-02-18 17:53:00,41.0,25.0,29.97,NNW,330,20.0,-999.0,52,-99.99,,,-99.99,,2013-02-18 23:53:00,
2013-02-18 18:12:00,39.0,23.0,29.98,NNW,330,17.0,22.0,51,-99.99,,,-99.99,,2013-02-19 00:12:00,
2013-02-18 18:22:00,37.0,23.0,29.99,NNW,330,14.0,-999.0,55,-99.99,,,-99.99,,2013-02-19 00:22:00,
2013-02-18 18:33:00,37.0,23.0,30.00,NNW,330,13.0,17.0,55,-99.99,,,-99.99,,2013-02-19 00:33:00,
2013-02-18 18:43:00,37.0,23.0,30.00,NNW,330,13.0,17.0,55,-99.99,,,-99.99,,2013-02-19 00:43:00,
2013-02-18 18:53:00,36.0,23.0,30.01,NNW,330,10.0,-999.0,59,-99.99,,,-99.99,,2013-02-19 00:53:00,
2013-02-18 19:03:00,36.0,23.0,30.01,NNW,330,10.0,-999.0,59,-99.99,,,-99.99,,2013-02-19 01:03:00,
2013-02-18 19:13:00,36.0,23.0,30.01,NNW,330,10.0,-999.0,59,-99.99,,,-99.99,,2013-02-19 01:13:00,
2013-02-18 19:23:00,36.0,25.0,30.02,NNW,330,9.0,-999.0,64,-99.99,,,-99.99,,2013-02-19 01:23:00,
2013-02-18 19:33:00,36.0,23.0,30.02,NW,320,8.0,-999.0,59,-99.99,,,-99.99,,2013-02-19 01:33:00,
2013-02-18 19:45:00,36.0,23.0,30.02,NW,320,8.0,-999.0,59,-99.99,,,-99.99,,2013-02-19 01:45:00,
2013-02-18 19:56:00,36.0,23.0,30.02,NW,320,8.0,-999.0,59,-99.99,,,-99.99,,2013-02-19 01:56:00,
2013-02-18 20:03:00,36.0,23.0,30.02,NW,320,8.0,-999.0,59,-99.99,,,-99.99,,2013-02-19 02:03:00,
2013-02-18 20:13:00,36.0,23.0,30.02,NW,320,8.0,-999.0,59,-99.99,,,-99.99,,2013-02-19 02:13:00,
2013-02-18 20:22:00,30.0,21.0,30.04,NNW,330,9.0,-999.0,68,-99.99,,,-99.99,,2013-02-19 02:22:00,
2013-02-18 20:35:00,30.0,21.0,30.04,NW,320,9.0,-999.0,68,-99.99,,,-99.99,,2013-02-19 02:35:00,
2013-02-18 20:43:00,30.0,21.0,30.04,NW,320,9.0,-999.0,68,-99.99,,,-99.99,,2013-02-19 02:43:00,
2013-02-18 20:55:00,30.0,21.0,30.04,NW,310,7.0,-999.0,68,-99.99,,,-99.99,,2013-02-19 02:55:00,
2013-02-18 21:14:00,30.0,21.0,30.04,NW,310,7.0,-999.0,68,-99.99,,,-99.99,,2013-02-19 03:14:00,
2013-02-18 21:23:00,25.0,19.0,30.05,WNW,300,7.0,-999.0,79,-99.99,,,-99.99,,2013-02-19 03:23:00,
2013-02-18 21:33:00,21.0,18.0,30.05,WNW,300,6.0,-999.0,85,-99.99,,,-99.99,,2013-02-19 03:33:00,
2013-02-18 21:45:00,21.0,18.0,30.05,WNW,300,6.0,-999.0,85,-99.99,,,-99.99,,2013-02-19 03:45:00,
2013-02-18 21:54:00,23.0,19.0,30.06,NW,310,7.0,-999.0,85,-99.99,,,-99.99,,2013-02-19 03:54:00,
2013-02-18 22:02:00,23.0,19.0,30.06,NW,310,7.0,-999.0,85,-99.99,,,-99.99,,2013-02-19 04:02:00,
2013-02-18 22:14:00,23.0,19.0,30.06,NW,310,7.0,-999.0,85,-99.99,,,-99.99,,2013-02-19 04:14:00,
2013-02-18 22:22:00,21.0,18.0,30.07,NW,320,3.0,-999.0,85,-99.99,,,-99.99,,2013-02-19 04:22:00,
2013-02-18 22:33:00,21.0,19.0,30.08,NW,320,8.0,-999.0,92,-99.99,,,-99.99,,2013-02-19 04:33:00,
2013-02-18 22:44:00,21.0,19.0,30.08,NW,320,8.0,-999.0,92,-99.99,,,-99.99,,2013-02-19 04:44:00,
2013-02-18 22:54:00,23.0,19.0,30.09,NW,310,6.0,-999.0,85,-99.99,,,-99.99,,2013-02-19 04:54:00,
2013-02-18 23:02:00,23.0,19.0,30.09,NW,310,6.0,-999.0,85,-99.99,,,-99.99,,2013-02-19 05:02:00,
2013-02-18 23:12:00,23.0,19.0,30.09,NW,310,6.0,-999.0,85,-99.99,,,-99.99,,2013-02-19 05:12:00,
2013-02-18 23:22:00,19.0,18.0,30.10,West,280,5.0,-999.0,92,-99.99,,,-99.99,,2013-02-19 05:22:00,
2013-02-18 23:32:00,18.0,16.0,30.11,WNW,300,8.0,-999.0,92,-99.99,,,-99.99,,2013-02-19 05:32:00,
2013-02-18 23:43:00,18.0,16.0,30.11,WNW,300,8.0,-999.0,92,-99.99,,,-99.99,,2013-02-19 05:43:00,
2013-02-18 23:52:00,21.0,19.0,30.11,NW,310,10.0,-999.0,92,-99.99,,,-99.99,,2013-02-19 05:52:00,